DW8366 Weather Reports


Display with metric or nautical units.
time (UTC)temp
F
wind
direction
speed
MPH
gust
MPH
rain 1hr
in
rain 24hr
in
rain mn
in
humidity
%
barometer
mb
20190122012504 47 282 1.0 9.0 0.00 0.00 0.00 55 1013.2
20190122011504 48 294 3.0 8.0 0.00 0.00 0.00 55 1013.2
20190122010504 48 280 1.0 7.0 0.00 0.00 0.00 54 1013.2
20190122004005 49 337 5.0 10.0 0.00 0.00 0.00 53 1013.2
20190122003004 49 99 2.0 9.0 0.00 0.00 0.00 54 1013.2
20190122002004 50 283 6.0 14.0 0.00 0.00 0.00 53 1013.2
20190122001503 50 283 4.0 9.0 0.00 0.00 0.00 55 1013.2
20190122001004 49 266 4.0 12.0 0.00 0.00 0.00 55 1013.2
20190122000006 48 279 5.0 11.0 0.00 0.00 0.00 56 1013.2
20190121235505 48 290 5.0 11.0 0.00 0.00 0.00 58 1013.2
20190121235006 47 277 4.0 11.0 0.00 0.00 0.00 59 1013.2
20190121233504 47 227 4.0 15.0 0.00 0.00 0.00 59 1013.2
20190121232004 46 284 4.0 11.0 0.00 0.00 0.00 60 1013.2
20190121231503 46 280 3.0 12.0 0.00 0.00 0.00 60 1013.2
20190121231004 46 266 7.0 12.0 0.00 0.00 0.00 61 1013.2
20190121230005 44 269 5.0 11.0 0.00 0.00 0.00 64 1013.2
20190121225504 44 234 2.0 9.0 0.00 0.00 0.00 64 1013.2
20190121225004 43 253 4.0 9.0 0.00 0.00 0.00 64 1013.2
20190121224004 42 259 2.0 8.0 0.00 0.00 0.00 65 1013.2
20190121223505 42 262 2.0 5.0 0.00 0.00 0.00 65 1013.2
20190121223004 42 262 3.0 5.0 0.00 0.00 0.00 65 1013.2
20190121221505 41 271 1.0 4.0 0.00 0.00 0.00 67 1013.2
20190121221004 40 263 1.0 4.0 0.00 0.00 0.00 67 1013.2
20190121220504 40 244 1.0 3.0 0.00 0.00 0.00 67 1013.2
20190121215004 40 256 1.0 3.0 0.00 0.00 0.00 66 1013.2
20190121214004 40 224 0.0 2.0 0.00 0.00 0.00 65 1013.2
20190121211504 40 252 0.0 3.0 0.00 0.00 0.00 65 1013.2
20190121210004 41 269 0.0 4.0 0.00 0.00 0.00 65 1013.2
20190121205504 41 267 1.0 4.0 0.00 0.00 0.00 65 1013.2
20190121204505 41 244 2.0 4.0 0.00 0.00 0.00 65 1013.2
20190121202504 41 265 2.0 5.0 0.00 0.00 0.00 65 1013.2
20190121202005 41 250 2.0 5.0 0.00 0.00 0.00 64 1013.2
20190121201504 41 245 1.0 5.0 0.00 0.00 0.00 63 1013.2
20190121200504 41 263 3.0 5.0 0.00 0.00 0.00 63 1013.2
20190121195004 41 263 2.0 4.0 0.00 0.00 0.00 63 1013.2
20190121194504 41 253 2.0 4.0 0.00 0.00 0.00 63 1013.2
20190121192503 41 263 1.0 6.0 0.00 0.00 0.00 63 1013.2
20190121191504 41 270 3.0 5.0 0.00 0.00 0.00 62 1013.2
20190121191004 41 275 2.0 6.0 0.00 0.00 0.00 62 1013.2
20190121190506 41 277 2.0 7.0 0.00 0.00 0.00 62 1013.2
20190121185505 41 253 2.0 8.0 0.00 0.00 0.00 62 1013.2
20190121184504 41 269 1.0 8.0 0.00 0.00 0.00 61 1013.2
20190121184004 41 266 3.0 8.0 0.00 0.00 0.00 61 1013.2
20190121182005 42 274 2.0 6.0 0.00 0.00 0.00 61 1013.2
20190121181504 42 259 2.0 7.0 0.00 0.00 0.00 61 1013.2
20190121181003 42 244 2.0 8.0 0.00 0.00 0.00 61 1013.2
20190121180504 42 261 2.0 8.0 0.00 0.00 0.00 61 1013.2
20190121180004 42 270 2.0 4.0 0.00 0.00 0.00 62 1013.2
20190121175504 42 264 2.0 7.0 0.00 0.00 0.00 62 1013.2
20190121174005 42 270 2.0 8.0 0.00 0.00 0.00 62 1013.2
20190121173504 42 282 4.0 9.0 0.00 0.00 0.00 63 1013.2
20190121173005 42 274 3.0 9.0 0.00 0.00 0.00 63 1013.2
20190121172005 42 268 2.0 5.0 0.00 0.00 0.00 64 1013.2
20190121171505 42 270 1.0 6.0 0.00 0.00 0.00 64 1013.2
20190121171005 42 266 2.0 9.0 0.00 0.00 0.00 65 1013.2
20190121170504 42 267 4.0 9.0 0.00 0.00 0.00 65 1013.2
20190121170004 41 263 2.0 7.0 0.00 0.00 0.00 66 1013.2
20190121165005 41 254 2.0 6.0 0.00 0.00 0.00 68 1013.2
20190121164505 41 245 3.0 5.0 0.00 0.00 0.00 68 1013.2
20190121163504 41 268 2.0 6.0 0.00 0.00 0.00 70 1013.2
20190121163005 41 290 4.0 7.0 0.00 0.00 0.00 70 1013.2
20190121162006 41 283 2.0 5.0 0.00 0.00 0.00 71 1013.2
20190121161505 41 281 3.0 5.0 0.00 0.00 0.00 73 1013.2
20190121160004 40 243 1.0 4.0 0.00 0.00 0.00 74 1013.2
20190121153007 40 247 1.0 5.0 0.00 0.00 0.00 76 1013.2
20190121152505 40 252 1.0 5.0 0.00 0.00 0.00 76 1013.2
20190121151505 40 262 2.0 5.0 0.00 0.00 0.00 77 1013.2
20190121151004 40 256 2.0 5.0 0.00 0.00 0.00 77 1013.2
20190121150005 40 267 2.0 6.0 0.00 0.00 0.00 78 1013.2
20190121145005 40 276 2.0 6.0 0.00 0.00 0.00 78 1013.2
20190121144004 40 270 2.0 4.0 0.00 0.00 0.00 78 1013.2
20190121143504 40 263 2.0 4.0 0.00 0.00 0.00 78 1013.2
20190121142504 40 236 3.0 4.0 0.00 0.00 0.00 78 1013.2
20190121141004 40 260 1.0 4.0 0.00 0.00 0.00 76 1013.2
20190121140505 40 270 2.0 4.0 0.00 0.00 0.00 76 1013.2
20190121135006 40 269 2.0 4.0 0.00 0.00 0.00 74 1013.2
20190121133504 41 260 3.0 4.0 0.00 0.00 0.00 74 1013.2
20190121133004 41 260 2.0 5.0 0.00 0.00 0.00 74 1013.2
20190121132005 40 275 2.0 6.0 0.00 0.00 0.00 74 1013.2
20190121131506 40 271 4.0 6.0 0.00 0.00 0.00 74 1013.2
20190121131005 40 270 2.0 5.0 0.00 0.00 0.00 73 1013.2
20190121130504 40 277 3.0 5.0 0.00 0.00 0.00 73 1013.2
20190121125505 40 266 2.0 4.0 0.00 0.00 0.00 72 1013.2
20190121124505 41 257 2.0 7.0 0.00 0.00 0.00 70 1013.2
20190121124004 41 253 2.0 5.0 0.00 0.00 0.00 70 1013.2
20190121122506 42 260 2.0 6.0 0.00 0.00 0.00 70 1013.2
20190121122004 42 276 3.0 7.0 0.00 0.00 0.00 70 1013.2
20190121121504 42 274 3.0 9.0 0.00 0.00 0.00 70 1013.2
20190121120007 42 247 1.0 4.0 0.00 0.00 0.00 69 1013.2
20190121115004 42 207 2.0 8.0 0.00 0.00 0.00 69 1013.2
20190121114505 41 229 2.0 8.0 0.00 0.00 0.00 69 1013.2
20190121114005 41 226 1.0 4.0 0.00 0.00 0.00 68 1013.2
20190121113505 41 228 1.0 4.0 0.00 0.00 0.00 68 1013.2
20190121112504 41 276 1.0 3.0 0.00 0.00 0.00 67 1013.2
20190121112005 42 262 2.0 4.0 0.00 0.00 0.00 67 1013.2
20190121111005 42 213 0.0 3.0 0.00 0.00 0.00 66 1013.2
20190121110006 42 260 2.0 4.0 0.00 0.00 0.00 66 1013.2
20190121105005 42 252 2.0 7.0 0.00 0.00 0.00 65 1013.2
20190121104505 42 253 1.0 7.0 0.00 0.00 0.00 65 1013.2
20190121104005 42 248 4.0 7.0 0.00 0.00 0.00 65 1013.2
20190121101005 43 263 2.0 4.0 0.00 0.00 0.00 63 1013.2
20190121100504 43 260 1.0 4.0 0.00 0.00 0.00 63 1013.2
20190121100004 43 226 2.0 4.0 0.00 0.00 0.00 63 1013.2
20190121095005 43 224 0.0 4.0 0.00 0.00 0.00 62 1013.2
20190121094505 43 255 2.0 7.0 0.00 0.00 0.00 62 1013.2
20190121094004 43 269 1.0 7.0 0.00 0.00 0.00 62 1013.2
20190121093504 43 246 3.0 7.0 0.00 0.00 0.00 62 1013.2
20190121093005 43 249 1.0 4.0 0.00 0.00 0.00 62 1013.2
20190121092504 43 255 3.0 6.0 0.00 0.00 0.00 61 1013.2
20190121091504 43 266 3.0 8.0 0.00 0.00 0.00 61 1013.2
20190121090006 44 266 2.0 7.0 0.00 0.00 0.00 60 1013.2
20190121085005 44 291 2.0 5.0 0.00 0.00 0.00 59 1013.2
20190121084506 44 286 2.0 6.0 0.00 0.00 0.00 59 1013.2
20190121084005 44 286 2.0 7.0 0.00 0.00 0.00 58 1013.2
20190121083007 44 355 2.0 8.0 0.00 0.00 0.00 57 1013.2
20190121082505 45 209 2.0 7.0 0.00 0.00 0.00 55 1013.2
20190121081005 45 248 2.0 6.0 0.00 0.00 0.00 52 1013.2
20190121080504 45 251 3.0 6.0 0.00 0.00 0.00 51 1013.2
20190121075504 46 228 1.0 6.0 0.00 0.00 0.00 50 1013.2
20190121075004 46 243 4.0 6.0 0.00 0.00 0.00 49 1013.2
20190121074504 46 261 1.0 6.0 0.00 0.00 0.00 49 1013.2
20190121073506 46 227 3.0 8.0 0.00 0.00 0.00 48 1013.2
20190121073004 46 260 2.0 12.0 0.00 0.00 0.00 48 1013.2
20190121072505 46 266 2.0 12.0 0.00 0.00 0.00 47 1013.2
20190121071506 47 284 3.0 14.0 0.00 0.00 0.00 46 1013.2
20190121071005 47 315 4.0 8.0 0.00 0.00 0.00 45 1013.2
20190121070005 48 283 2.0 11.0 0.00 0.00 0.00 45 1013.2
20190121064505 48 279 7.0 11.0 0.00 0.00 0.00 43 1013.2
20190121063504 49 321 3.0 11.0 0.00 0.00 0.00 42 1013.2
20190121063005 49 275 4.0 11.0 0.00 0.00 0.00 42 1013.2
20190121061505 49 217 3.0 11.0 0.00 0.00 0.00 40 1013.2
20190121061005 49 232 6.0 11.0 0.00 0.00 0.00 38 1013.2
20190121060504 50 270 5.0 17.0 0.00 0.00 0.00 36 1013.2
20190121055005 51 269 8.0 14.0 0.00 0.00 0.00 35 1013.2
20190121054507 52 352 6.0 10.0 0.00 0.00 0.00 32 1013.2
20190121054005 53 341 3.0 14.0 0.00 0.00 0.00 31 1013.2
20190121053505 54 339 5.0 14.0 0.00 0.00 0.00 30 1013.2
20190121053005 54 326 4.0 11.0 0.00 0.00 0.00 31 1013.2
20190121052504 54 335 3.0 11.0 0.00 0.00 0.00 32 1013.2
20190121052005 54 258 4.0 11.0 0.00 0.00 0.00 33 1013.2
20190121051505 54 250 5.0 12.0 0.00 0.00 0.00 31 1013.2
20190121050505 55 284 4.0 15.0 0.00 0.00 0.00 29 1013.2
20190121045505 56 6 4.0 14.0 0.00 0.00 0.00 31 1013.2
20190121044505 56 348 5.0 8.0 0.00 0.00 0.00 32 1013.2
20190121044005 55 298 4.0 8.0 0.00 0.00 0.00 31 1013.2
20190121042004 54 224 4.0 15.0 0.00 0.00 0.00 29 1013.2
20190121040005 55 123 4.0 11.0 0.00 0.00 0.00 30 1013.2
20190121035505 55 155 4.0 11.0 0.00 0.00 0.00 28 1013.2
20190121034505 56 294 4.0 12.0 0.00 0.00 0.00 28 1013.2
20190121034005 55 285 4.0 13.0 0.00 0.00 0.00 26 1013.2
20190121033007 56 297 4.0 10.0 0.00 0.00 0.00 28 1013.2
20190121032006 56 266 3.0 10.0 0.00 0.00 0.00 27 1013.2
20190121031505 56 270 3.0 10.0 0.00 0.00 0.00 27 1013.2
20190121031005 56 267 6.0 10.0 0.00 0.00 0.00 29 1013.2
20190121030504 56 246 3.0 10.0 0.00 0.00 0.00 28 1013.2
20190121030005 55 246 7.0 11.0 0.00 0.00 0.00 29 1013.2
20190121025005 54 266 3.0 14.0 0.00 0.00 0.00 28 1013.2
20190121024506 54 258 4.0 10.0 0.00 0.00 0.00 28 1013.2
20190121023504 54 275 4.0 13.0 0.00 0.00 0.00 29 1013.2
20190121023006 54 343 3.0 13.0 0.00 0.00 0.00 30 1013.2
20190121022505 54 356 2.0 10.0 0.00 0.00 0.00 30 1013.2
20190121022005 54 283 4.0 9.0 0.00 0.00 0.00 31 1013.2
20190121021505 53 223 3.0 9.0 0.00 0.00 0.00 32 1013.2
20190121021005 53 229 4.0 9.0 0.00 0.00 0.00 31 1013.2
20190121020005 53 246 5.0 17.0 0.00 0.00 0.00 31 1013.2
20190121015005 53 353 4.0 10.0 0.00 0.00 0.00 31 1013.2